Location: Beeston
(52.7000°N, 0.8167°E)
Time: 10:23:09
(UTC+00:00)

Cosmos 1975 - Pass Details

Date: 15 May 2026
Orbit: 471 x 485 km, 82.5° (Epoch: 5 June)

Event Time Altitude Azimuth Distance (km) Brightness Sun altitude
Rises 21:52:08 0° 359° (N) 2,575 7.4 -13.6°
Reaches altitude 10° 21:54:41 10° 18° (NNE) 1,688 5.9 -13.8°
Maximum altitude 21:57:27 20° 66° (ENE) 1,196 4.5 -14.0°
Enters shadow 21:59:16 14° 103° (ESE) 1,426 4.6 -14.1°
